History for Miami, FL

Friday, November 16, 2012 — View Current Conditions

Jump to Data:

Date:
Airport Code:
Recently Viewed Airport Codes: KMIA
Daily Summary
  Actual Average Record
Temperature
Mean Temperature 73°F 75°F  
Max Temperature 80°F 82°F 89°F (1989)
Min Temperature 66°F 68°F 44°F (1940)
Degree Days
Heating Degree Days 0 0  
Month to date heating degree days 1 0  
Since 1 July heating degree days 1 0  
Cooling Degree Days 8 10  
Month to date cooling degree days 125 176  
Year to date cooling degree days 4364 4248  
Growing Degree Days 23 (Base 50)    
Moisture
Dew Point 64°F    
Average Humidity 74    
Maximum Humidity 87    
Minimum Humidity 60    
Precipitation
Precipitation T in 0.11 in 2.52 in (1966)
Month to date precipitation 0.24 2.02  
Year to date precipitation 86.17 58.61  
Snow
Snow 0.00 in in in ()
Month to date snowfall 0.0  
Since 1 July snowfall 0.0  
Since 1 September snowfall 0.0  
Snow Depth 0.00 in    
Sea Level Pressure
Sea Level Pressure 30.07 in    
Wind
Wind Speed 5 mph (North)    
Max Wind Speed 10 mph    
Max Gust Speed 23 mph    
Visibility 10 miles    
Events      
T = Trace of Precipitation, MM = Missing Value Source: NWS Daily Summary

Show full METARS

(help) - Comma Delimited File

Hourly Observations

Time(EST) Temperature Dew Point Humidity Sea Level Pressure Visibility Wind Direction Wind Speed Gust Speed Precipitation Events Conditions
12:53 AM 70.0°F 64.0°F 81% 30.07 in 10.0 miles NNW 8.1 mph - N/A   Mostly Cloudy
1:53 AM 69.1°F 64.0°F 84% 30.06 in 10.0 miles NNW 5.8 mph - N/A   Mostly Cloudy
2:53 AM 68.0°F 64.0°F 87% 30.06 in 10.0 miles NNW 5.8 mph - N/A   Scattered Clouds
3:53 AM 66.9°F 63.0°F 87% 30.06 in 10.0 miles NNW 4.6 mph - N/A   Scattered Clouds
4:53 AM 66.0°F 63.0°F 90% 30.06 in 10.0 miles NNW 5.8 mph - N/A   Overcast
5:53 AM 66.9°F 63.0°F 87% 30.08 in 7.0 miles NNW 4.6 mph - N/A   Overcast
6:53 AM 66.9°F 63.0°F 87% 30.08 in 7.0 miles NW 5.8 mph - N/A   Mostly Cloudy
7:11 AM 66.2°F 62.6°F 88% 30.08 in 10.0 miles NNW 8.1 mph 16.1 mph N/A   Mostly Cloudy
7:32 AM 66.2°F 62.6°F 88% 30.09 in 10.0 miles North 6.9 mph - N/A   Mostly Cloudy
7:53 AM 66.0°F 63.0°F 90% 30.10 in 10.0 miles North 6.9 mph - N/A   Overcast
8:53 AM 69.1°F 64.0°F 84% 30.11 in 10.0 miles North 5.8 mph - N/A   Mostly Cloudy
9:21 AM 69.8°F 64.4°F 83% 30.12 in 10.0 miles North 6.9 mph - N/A   Overcast
9:49 AM 73.4°F 64.4°F 73% 30.12 in 10.0 miles North 5.8 mph - N/A   Mostly Cloudy
9:53 AM 73.0°F 64.0°F 73% 30.12 in 10.0 miles North 5.8 mph - N/A   Mostly Cloudy
10:53 AM 73.0°F 64.0°F 73% 30.10 in 10.0 miles Calm Calm - N/A   Mostly Cloudy
11:53 AM 75.0°F 64.9°F 71% 30.08 in 10.0 miles NE 5.8 mph - N/A   Mostly Cloudy
12:53 PM 78.1°F 64.0°F 62% 30.06 in 10.0 miles Variable 4.6 mph - N/A   Mostly Cloudy
1:53 PM 77.0°F 64.0°F 64% 30.04 in 10.0 miles North 5.8 mph - N/A   Mostly Cloudy
2:53 PM 77.0°F 63.0°F 62% 30.04 in 10.0 miles East 8.1 mph - N/A   Overcast
3:53 PM 75.9°F 64.9°F 69% 30.03 in 10.0 miles East 9.2 mph - N/A   Mostly Cloudy
4:53 PM 75.9°F 64.0°F 67% 30.04 in 10.0 miles NNE 3.5 mph - N/A   Mostly Cloudy
5:53 PM 75.0°F 64.9°F 71% 30.04 in 10.0 miles ENE 5.8 mph - N/A   Mostly Cloudy
6:53 PM 75.0°F 64.9°F 71% 30.06 in 10.0 miles Calm Calm - N/A   Mostly Cloudy
7:53 PM 73.0°F 66.0°F 79% 30.07 in 10.0 miles NNW 4.6 mph - N/A   Mostly Cloudy
8:53 PM 72.0°F 66.0°F 81% 30.07 in 10.0 miles Calm Calm - 0.00 in   Mostly Cloudy
9:53 PM 72.0°F 66.0°F 81% 30.08 in 10.0 miles North 3.5 mph - N/A   Mostly Cloudy
10:53 PM 73.0°F 64.9°F 76% 30.08 in 10.0 miles North 3.5 mph - N/A   Mostly Cloudy
11:53 PM 70.0°F 64.9°F 84% 30.05 in 10.0 miles Calm Calm - N/A   Mostly Cloudy